Weather History for KHKY - February, 2014

Change the Weather History Date:

Tuesday, February 25, 2014

  Actual Average Record
Temperature  
Mean Temperature 46 °F -  
Max Temperature 60 °F 54 °F 71 °F (1958)
Min Temperature 32 °F 32 °F 4 °F (1967)
Degree Days  
Heating Degree Days 19    
Moisture  
Dew Point 21 °F    
Average Humidity 41    
Maximum Humidity 73    
Minimum Humidity 24    
Precipitation  
Precipitation 0.00 in - - ()
Sea Level Pressure  
Sea Level Pressure 29.96 in    
Wind  
Wind Speed 2 mph (NE)    
Max Wind Speed 9 mph    
Max Gust Speed 18 mph    
Visibility 10 miles    
Events      
Averages and records for this station are not official NWS values.
T = Trace of Precipitation, MM = Missing Value Source: NWS Daily Summary

Daily Weather History Graph

Daily Weather History Graph

Search for Another Location

Airport or City:

Trip Planner

Search our weather history database for the weather conditions in past years. The results will help you decide how hot, cold, wet, or windy it might be!

Date:

Astronomy

Feb. 25, 2014 Rise Set
Actual Time 7:00 AM EST 6:16 PM EST
Civil Twilight 6:34 AM EST 6:42 PM EST
Nautical Twilight 6:05 AM EST 7:12 PM EST
Astronomical Twilight 5:35 AM EST 7:42 PM EST
Moon 3:48 AM EST (2/25) 2:26 PM EST (2/25)
Length of Visible Light 12h 07m
Length of Day
11h 16m
Waning Crescent, 18% of the Moon is Illuminated
Feb 25
Waning Crescent
Mar 1
New
Mar 8
First Quarter
Mar 16
Full
Mar 23
Last Quarter

Hourly Weather History & Observations

Time (EST) Temp. Windchill Dew Point Humidity Pressure Visibility Wind Dir Wind Speed Gust Speed Precip Events Conditions
12:53 AM 39.0 °F - 16.0 °F 39% 30.04 in 10.0 mi Calm Calm - N/A   Clear
1:53 AM 37.0 °F - 19.9 °F 50% 30.04 in 10.0 mi Calm Calm - N/A   Clear
2:53 AM 36.0 °F - 19.9 °F 52% 30.03 in 10.0 mi Calm Calm - N/A   Clear
3:53 AM 34.0 °F - 21.0 °F 59% 30.02 in 10.0 mi Calm Calm - N/A   Clear
4:53 AM 32.0 °F - 24.1 °F 73% 30.02 in 10.0 mi Calm Calm - N/A   Clear
5:53 AM 32.0 °F - 24.1 °F 73% 30.02 in 10.0 mi Calm Calm - N/A   Mostly Cloudy
6:53 AM 33.1 °F - 25.0 °F 72% 30.02 in 10.0 mi Calm Calm - N/A   Overcast
7:53 AM 36.0 °F - 24.1 °F 62% 30.03 in 10.0 mi Calm Calm - N/A   Overcast
8:53 AM 37.9 °F 33.5 °F 25.0 °F 60% 30.04 in 10.0 mi NNW 5.8 mph - N/A   Mostly Cloudy
9:53 AM 46.0 °F - 16.0 °F 30% 30.00 in 10.0 mi Calm Calm - N/A   Clear
10:53 AM 48.9 °F - 14.0 °F 25% 29.99 in 10.0 mi Calm Calm - N/A   Clear
11:53 AM 52.0 °F - 18.0 °F 26% 29.96 in 10.0 mi Calm Calm - N/A   Clear
12:53 PM 57.0 °F - 21.9 °F 26% 29.92 in 10.0 mi NW 8.1 mph - N/A   Clear
1:53 PM 59.0 °F - 24.1 °F 26% 29.89 in 10.0 mi NNW 9.2 mph - N/A   Clear
2:53 PM 60.1 °F - 24.1 °F 25% 29.88 in 10.0 mi Variable 6.9 mph 18.4 mph N/A   Clear
3:53 PM 60.1 °F - 24.1 °F 25% 29.88 in 10.0 mi North 5.8 mph - N/A   Clear
4:53 PM 60.1 °F - 23.0 °F 24% 29.87 in 10.0 mi Variable 4.6 mph - N/A   Clear
5:53 PM 54.0 °F - 21.9 °F 29% 29.88 in 10.0 mi ENE 8.1 mph - N/A   Clear
6:53 PM 48.9 °F - 21.9 °F 35% 29.90 in 10.0 mi NNE 6.9 mph - N/A   Clear
7:53 PM 46.9 °F - 21.9 °F 37% 29.92 in 10.0 mi NE 5.8 mph - N/A   Clear
8:53 PM 46.0 °F 43.1 °F 19.9 °F 35% 29.92 in 10.0 mi ENE 5.8 mph - N/A   Scattered Clouds
9:53 PM 46.9 °F - 19.0 °F 33% 29.92 in 10.0 mi East 3.5 mph - N/A   Overcast
10:53 PM 45.0 °F - 19.9 °F 37% 29.92 in 10.0 mi Calm Calm - N/A   Partly Cloudy
11:53 PM 42.1 °F 39.2 °F 19.9 °F 41% 29.90 in 10.0 mi East 4.6 mph - N/A   Clear